User: anonymous   Login
Location: Theydon Bois
(51.6750°N, 0.1050°E)
Time: 13:13:52
(UTC+00:00)
Language:

Cosmos 2123 Rocket - Orbit

View from above orbital plane
View from above orbital plane
View from above satellite
View from above satellite

Ground track
Ground track

The orbit data is extracted from the following two-line orbital elements,

1 21090U 91007B   17344.87212979 -.00000008 +00000-0 -23082-4 0  9992
2 21090 082.9216 107.0295 0019511 258.8382 101.0581 13.76340231348022
Epoch (UTC): 10 December 2017 20:55:52
Eccentricity: 0.0019511
inclination: 82.9216°
perigee height: 962 km
apogee height: 991 km
right ascension of ascending node: 107.0295°
argument of perigee: 258.8382°
revolutions per day: 13.76340231
mean anomaly at epoch: 101.0581°
orbit number at epoch: 34802

The dashed part of the orbit path shows where the satellite is in the earth's shadow,  

DLR